Theta_e
331 332 330 328 329 330 331 330 330 330 332 332 333 334 333 330 331 331 329 329 327 327 327 326 324 324 323 326 328 328 328 329 329 329 330 329 330 334 341 341 340 340 339 338 338 338 337 336 335 335 334 333 332 332 332 336 336 337 336 334 333 332 331 331 330 329 329 329 328 328 326 326 326 326 325 325 325 325 324 324 324 324 323 324 323
332 331 330 328 331 330 330 329 329 330 331 332 333 334 333 329 329 331 332 327 328 327 326 325 325 324 324 325 328 329 328 329 331 332 332 332 331 331 340 341 340 338 340 339 339 338 338 337 336 336 334 334 334 332 332 333 336 337 336 335 333 332 331 331 330 330 330 329 329 328 327 326 326 325 325 325 325 324 324 324 324 323 323 322 322
332 332 331 328 329 330 329 328 327 330 332 331 332 334 333 331 329 329 328 327 327 327 327 327 326 327 325 326 326 327 328 328 330 331 332 332 332 330 333 339 338 338 339 339 339 338 338 338 337 336 335 334 334 333 332 332 334 337 337 336 334 333 332 331 331 330 330 329 328 328 327 327 326 326 325 325 324 324 323 324 323 323 322 322 321
331 332 333 329 330 331 331 329 329 331 332 331 330 331 330 332 331 329 327 327 327 327 328 328 327 327 327 327 326 326 325 327 328 329 330 331 330 330 330 332 338 339 339 338 340 339 339 339 339 337 336 335 335 334 333 333 332 334 336 337 334 333 332 331 331 331 330 329 329 328 328 327 327 326 325 325 324 324 323 323 323 322 322 321 321
329 330 336 331 331 331 332 332 332 333 333 332 333 330 329 328 328 328 327 327 328 327 328 327 327 327 328 328 327 326 326 326 326 328 330 330 329 329 330 330 330 337 339 339 339 339 340 340 339 339 337 336 336 335 334 334 333 333 335 337 335 334 332 332 332 331 331 330 330 329 329 328 327 326 325 325 324 323 323 323 323 322 322 322 321
331 331 331 330 329 328 331 331 330 332 331 331 330 327 327 327 327 328 331 326 326 324 325 326 326 327 328 328 327 326 326 326 324 325 328 328 329 328 330 330 329 329 330 337 339 339 338 340 340 339 339 337 335 335 335 335 335 333 334 338 336 334 334 333 332 332 331 331 330 329 328 328 327 327 325 325 324 323 323 323 322 322 322 321 321
330 330 332 332 329 329 329 330 331 330 330 329 329 327 327 327 326 325 324 325 325 326 324 324 324 325 325 326 326 327 326 326 326 325 324 324 327 329 330 331 329 329 331 328 336 338 339 339 341 341 339 338 336 336 336 335 335 334 333 337 336 336 335 333 333 332 332 331 330 329 329 328 328 327 326 325 324 324 323 323 322 322 322 321 321
329 329 331 330 329 327 328 329 329 329 328 328 328 327 326 326 325 325 324 322 324 321 322 322 323 324 326 326 325 326 325 325 326 325 324 324 324 325 328 329 329 327 333 329 329 332 337 339 339 339 340 340 339 338 337 336 335 335 334 335 337 336 335 334 334 333 333 332 331 330 330 329 329 328 327 325 324 324 323 323 322 322 322 321 321
328 328 330 327 327 327 327 327 328 328 327 326 325 326 326 325 322 323 321 321 321 321 324 324 323 325 328 327 326 326 325 325 325 324 325 323 321 323 323 326 329 336 329 331 329 330 334 337 338 337 338 338 339 339 339 339 337 336 336 335 335 336 336 335 334 333 333 333 332 331 330 329 328 328 327 326 325 324 324 323 322 322 322 321 321
325 327 330 331 328 328 327 327 328 326 325 325 324 324 323 323 322 321 321 321 320 321 323 324 327 328 327 325 325 326 326 326 326 327 323 323 322 322 322 322 324 328 329 329 330 330 330 334 336 337 337 336 338 339 339 339 339 339 337 337 336 336 336 336 334 334 334 334 334 332 331 330 329 328 328 327 326 325 324 323 323 322 322 321 321
326 327 326 333 329 328 327 327 327 326 325 324 324 323 323 321 322 322 323 322 321 322 323 324 325 324 325 326 328 328 327 327 326 325 324 324 325 326 326 324 325 326 325 328 329 329 329 330 330 332 334 336 337 339 339 340 340 340 338 338 338 337 337 336 336 334 333 335 335 333 331 330 329 328 328 328 327 326 326 324 323 323 322 321 321
324 327 330 331 328 326 325 324 325 325 324 323 322 322 321 321 321 323 324 326 326 325 325 325 323 323 322 324 326 326 328 326 326 326 323 323 323 324 323 324 322 323 325 326 328 329 329 330 331 332 333 334 336 336 337 338 339 340 340 338 339 339 339 338 337 336 333 335 335 334 332 331 330 329 329 329 328 326 326 325 324 324 322 322 321
326 328 329 333 328 327 325 324 325 325 324 322 322 323 324 323 322 323 324 324 325 326 326 323 321 319 321 322 323 326 327 325 324 324 324 322 321 320 320 321 321 321 323 327 327 328 328 329 330 331 332 334 333 333 335 336 336 339 340 340 340 340 341 340 338 338 336 333 335 335 333 331 330 330 329 329 329 328 327 326 325 324 324 323 322
327 327 328 327 326 325 325 324 324 324 324 323 323 326 323 324 322 321 324 325 325 327 324 321 316 317 315 315 319 322 325 323 321 323 324 321 319 318 317 319 321 322 324 327 327 329 330 330 327 328 328 330 331 332 333 333 334 336 339 340 341 342 342 339 338 339 339 336 334 335 334 333 331 330 330 330 330 330 328 327 325 325 324 323 323
324 326 327 326 326 325 325 323 324 326 324 324 323 323 323 323 322 322 321 321 322 323 321 321 318 319 317 314 310 309 312 314 318 320 321 318 317 317 319 320 321 322 324 326 327 325 328 331 328 328 327 328 330 332 331 332 333 336 337 339 340 342 343 340 338 337 339 339 337 335 335 334 333 332 331 330 330 330 329 328 326 326 325 324 324
322 325 325 324 325 325 324 323 323 323 322 321 318 320 321 323 323 320 319 315 316 319 322 320 318 316 310 312 312 308 303 309 311 315 319 319 317 316 317 320 321 322 323 324 326 327 326 329 328 329 330 331 331 331 330 330 331 334 336 337 337 340 340 340 341 339 338 338 338 338 336 335 334 333 332 331 331 331 330 329 327 326 326 325 325
315 318 324 323 321 322 323 322 322 321 321 320 319 320 320 320 319 318 317 316 315 318 321 322 321 323 318 313 307 304 305 313 310 309 316 317 316 318 321 318 319 319 319 321 324 325 327 330 330 330 329 330 331 330 330 330 330 331 331 332 331 333 336 340 341 340 341 339 337 336 337 336 335 334 333 332 331 331 331 330 329 327 327 327 326
313 315 319 321 320 319 319 322 321 321 321 319 319 319 318 319 318 318 318 317 318 317 319 323 323 321 320 317 313 309 309 314 309 305 310 314 317 319 316 316 315 319 319 320 321 323 325 326 328 329 329 331 331 331 331 331 332 332 331 330 328 331 327 331 336 338 337 341 338 338 337 337 336 334 333 332 332 331 331 331 330 329 329 328 328
311 312 314 316 315 315 315 317 318 319 321 318 318 316 320 321 320 318 318 317 317 315 320 320 321 321 320 318 320 318 314 311 307 304 303 307 311 311 314 312 317 320 320 320 319 320 320 322 323 327 331 331 331 331 330 330 331 331 330 327 326 326 324 322 331 336 338 337 337 338 336 335 336 335 334 333 332 332 332 331 331 331 330 330 329
311 312 314 315 314 314 314 315 316 317 318 314 313 314 317 315 316 316 319 318 317 318 318 319 318 316 319 318 319 320 319 319 314 310 306 304 306 310 309 309 310 315 316 315 315 316 318 319 320 323 325 329 331 332 332 330 328 328 328 324 324 324 323 322 319 322 330 336 336 336 335 334 335 334 334 333 332 332 332 332 332 332 332 331 330
311 311 311 313 315 312 312 313 313 313 315 313 312 312 312 312 314 316 316 316 317 317 319 317 315 315 319 318 317 312 308 310 311 311 307 303 302 302 302 305 306 308 309 309 310 311 315 319 323 324 322 326 330 330 331 330 328 328 328 326 324 323 322 320 316 313 314 323 331 334 336 336 335 334 332 333 332 333 333 333 333 333 332 332 331
308 309 310 311 312 312 311 311 311 312 312 310 310 310 310 310 310 311 310 309 309 312 314 312 313 313 313 315 308 304 302 302 302 303 304 306 303 302 300 299 300 303 306 308 309 311 313 314 313 314 316 319 323 326 326 325 325 329 327 324 321 320 319 318 314 311 312 317 324 328 334 336 336 336 335 334 335 334 333 333 333 334 334 334 334
308 308 309 310 310 312 310 310 312 314 311 309 308 308 307 307 307 307 307 307 307 307 307 307 306 305 304 304 303 303 303 301 301 301 300 298 297 297 296 298 300 299 303 306 308 308 308 308 308 307 308 309 311 317 320 325 328 327 325 324 321 321 319 317 313 310 313 317 321 325 330 335 337 336 336 334 335 334 335 335 336 336 335 335 335
307 307 307 308 310 308 310 309 310 309 308 308 307 307 307 306 306 306 305 304 305 306 304 303 303 303 302 302 302 302 302 302 301 301 301 300 298 296 296 297 297 298 302 304 305 306 307 306 306 306 306 307 309 311 315 318 319 323 325 321 320 319 317 315 311 310 309 310 314 317 324 331 335 335 335 335 337 335 335 335 335 334 335 335 336
305 307 305 306 308 307 308 308 308 308 307 306 305 305 305 304 304 303 302 302 302 302 301 300 301 300 299 299 300 302 301 301 302 302 300 299 299 297 297 298 297 296 298 301 303 304 305 306 305 305 306 306 308 308 310 312 313 317 321 320 318 316 313 313 313 311 309 308 309 313 318 325 330 331 334 335 336 335 334 334 331 324 325 327 332
306 306 306 306 306 308 307 306 306 306 306 305 305 305 305 305 304 304 303 302 302 302 301 300 300 299 299 300 300 301 300 301 301 302 300 299 297 297 296 294 295 296 296 299 301 301 302 304 305 305 305 306 307 308 309 309 310 315 316 317 318 315 311 310 312 310 309 310 309 311 315 319 326 331 331 333 333 330 330 325 322 319 316 315 315
306 306 307 305 306 307 307 306 306 306 307 307 309 307 308 307 306 305 304 302 303 303 301 300 300 298 298 299 301 300 299 299 300 301 302 301 300 299 297 295 292 291 295 295 296 300 301 301 304 304 304 306 306 307 308 308 311 314 314 315 313 313 310 309 309 309 309 309 309 308 307 309 312 316 319 322 322 320 320 320 320 318 317 316 316
305 308 306 307 307 307 307 305 306 306 307 307 307 307 306 306 305 305 305 307 303 302 301 301 300 299 299 298 300 299 299 299 300 301 300 301 301 299 298 295 292 290 291 292 293 295 299 300 300 303 304 304 306 306 310 309 308 312 311 309 309 310 309 309 308 309 309 308 307 307 306 305 305 306 307 309 312 314 316 318 317 317 315 315 315
308 308 307 306 307 307 306 306 306 306 306 306 306 306 305 306 305 304 304 302 303 301 301 301 300 300 299 299 300 300 300 301 301 302 302 300 301 299 299 298 295 293 292 291 291 292 295 300 299 299 303 303 304 306 306 305 309 309 306 306 306 307 309 309 307 306 308 308 307 307 306 306 306 306 308 311 312 313 314 313 312 312 312 313 313
308 310 307 307 307 312 306 306 306 306 306 306 306 306 305 304 304 304 304 304 303 302 303 302 301 301 302 301 300 302 302 299 300 302 301 300 299 299 299 299 298 296 293 292 292 292 295 296 299 299 301 302 304 305 305 304 310 308 305 305 305 306 309 307 306 305 306 306 307 306 305 305 306 307 309 309 310 309 309 309 309 309 309 309 310
309 309 306 306 307 307 306 305 306 306 306 305 305 305 304 304 304 305 305 305 303 303 302 302 302 303 301 300 300 301 302 300 300 301 301 301 300 299 299 300 300 297 296 294 292 293 298 297 296 299 300 300 303 303 303 303 306 307 304 304 304 308 308 306 306 305 306 305 305 305 305 304 305 306 307 308 309 310 309 309 309 309 309 309 309
308 309 306 306 307 305 306 306 306 306 305 305 305 305 304 305 306 305 305 304 304 303 303 302 304 301 301 301 301 300 300 299 299 300 299 301 301 299 299 299 299 297 296 295 294 295 297 297 298 299 300 301 301 300 300 301 303 307 302 303 304 306 304 304 305 305 305 304 304 303 303 304 304 303 303 304 305 306 306 307 307 308 308 308 308
309 309 307 306 306 306 306 307 306 306 305 305 305 304 305 304 305 305 304 304 304 302 304 302 303 301 301 300 300 300 299 298 298 299 300 299 299 300 301 299 298 298 298 296 295 296 296 297 298 299 300 300 299 299 299 299 300 301 303 301 302 302 302 302 303 305 304 304 303 303 303 303 302 302 301 302 302 303 304 304 305 306 304 305 306
311 310 308 307 307 307 306 306 306 306 307 306 305 305 305 305 304 305 305 304 303 302 303 302 302 303 301 300 299 299 300 298 298 298 299 299 298 298 299 299 298 299 299 298 295 295 294 295 297 297 297 299 297 298 298 298 298 300 299 300 300 301 302 302 302 304 304 305 303 303 304 303 303 303 302 302 302 303 304 303 302 302 302 303 303
311 311 309 309 309 307 307 307 306 306 306 306 304 305 304 304 304 303 305 304 303 302 302 302 302 302 300 301 300 300 301 297 298 299 299 299 298 298 298 298 298 297 298 297 295 293 293 293 295 294 296 295 295 296 297 298 298 299 298 298 299 301 302 301 301 303 303 303 302 302 302 302 302 303 302 302 302 302 303 303 303 303 302 301 301
310 310 309 309 308 307 307 307 307 307 307 307 306 305 306 305 305 305 303 303 303 303 303 302 302 302 301 300 299 300 300 297 297 298 298 298 298 298 297 297 297 297 297 296 296 294 294 291 291 294 295 293 293 294 297 297 297 297 298 298 298 299 299 301 300 301 304 303 302 301 301 302 302 302 302 302 302 302 302 302 303 303 303 301 301
313 313 311 310 309 308 309 308 308 307 307 307 307 306 305 305 305 305 304 303 303 303 303 303 304 302 302 301 299 301 299 297 297 298 298 297 297 296 295 295 295 296 297 295 294 293 291 289 290 292 293 292 294 294 296 295 295 296 296 297 297 298 298 299 300 301 304 303 301 301 300 300 300 301 301 301 301 302 302 302 302 303 303 304 303
313 313 312 312 312 311 310 309 309 309 308 308 308 307 306 306 307 305 305 304 303 303 303 303 303 302 302 301 299 301 300 299 299 298 297 296 294 294 293 293 294 294 293 293 293 291 290 290 290 290 291 292 292 292 294 295 294 295 295 295 295 296 297 297 298 300 302 301 299 299 300 299 300 300 301 301 300 301 301 301 302 302 302 302 302
314 314 313 313 313 312 312 311 310 310 310 309 308 306 307 306 306 305 304 304 304 303 303 304 303 302 302 301 300 301 300 299 299 299 298 295 296 293 295 293 292 292 292 291 290 290 290 290 289 289 290 292 292 291 293 293 293 294 293 293 293 295 295 295 295 297 300 299 298 298 298 298 300 300 300 300 300 301 301 301 303 302 300 299 299
314 314 315 314 314 315 315 313 313 312 311 310 308 308 308 307 306 305 305 304 304 303 303 302 302 303 302 302 301 301 301 300 300 299 298 295 294 293 293 293 292 291 291 291 290 289 289 289 288 288 289 289 290 291 293 292 292 292 294 293 291 292 293 294 294 295 298 296 296 296 297 297 298 299 299 300 300 301 301 302 303 302 299 298 299
315 315 315 316 315 315 314 314 313 311 310 310 311 310 309 308 307 307 307 307 306 305 304 303 302 302 302 301 301 301 304 305 302 301 299 298 294 292 292 293 291 290 290 290 290 289 289 289 289 289 288 288 288 289 290 290 289 289 292 292 291 292 292 293 293 294 297 294 294 294 294 295 296 297 297 297 299 301 300 303 302 300 298 298 299
314 315 315 315 315 314 314 312 310 309 309 309 309 306 305 307 307 308 308 306 306 305 305 304 303 302 302 302 303 306 305 304 301 298 296 297 298 295 292 292 292 290 289 288 289 289 290 289 288 288 288 287 287 288 288 289 290 291 290 290 290 291 291 291 292 293 295 294 293 292 293 295 296 296 296 296 298 299 299 301 299 298 298 298 299
313 313 314 313 312 312 311 309 308 309 308 307 295 299 301 300 303 305 307 307 306 306 305 304 303 303 302 301 300 304 304 304 301 296 295 294 294 294 295 295 295 291 289 289 288 288 291 289 288 288 287 287 288 288 288 289 289 289 289 289 290 290 288 288 287 290 294 293 292 291 291 294 295 294 295 296 297 297 298 299 297 298 298 298 299
312 312 311 311 311 310 310 308 306 305 305 296 293 296 296 297 300 305 306 307 307 306 306 305 304 303 302 299 300 303 302 301 298 295 295 294 293 293 292 293 293 294 294 292 291 289 288 288 287 288 287 287 287 287 288 288 289 289 289 288 288 288 288 287 286 287 291 293 291 290 290 293 294 294 293 295 296 296 297 297 297 298 298 298 298
311 310 311 310 310 309 309 307 306 301 299 296 292 293 294 294 295 298 304 307 308 307 306 305 304 302 300 300 300 300 299 303 299 294 295 294 293 293 293 293 293 292 291 292 294 294 289 288 288 287 287 287 287 288 291 289 289 288 288 288 288 287 287 286 287 288 290 292 290 289 289 291 292 292 292 294 295 296 296 297 296 298 298 298 298
310 310 310 309 309 308 308 304 298 294 294 295 293 295 295 295 295 296 300 302 303 304 304 304 302 301 301 299 298 297 297 298 296 296 295 294 294 293 292 292 292 293 291 291 290 291 292 291 288 288 288 290 290 289 291 290 289 289 287 287 287 287 287 287 288 288 290 292 289 288 288 289 290 291 290 292 294 294 295 296 294 297 297 297 296
307 308 307 306 306 305 302 297 294 292 294 293 293 293 293 293 295 296 296 298 297 296 297 299 299 299 298 299 297 297 297 297 297 295 295 294 293 293 291 291 291 290 290 290 290 290 291 290 289 289 289 289 289 289 289 289 289 289 289 288 288 288 288 288 287 288 288 289 289 288 285 288 289 290 290 291 293 293 295 295 295 296 296 296 296
297 298 298 300 300 297 295 293 293 292 292 293 293 293 293 293 295 297 296 296 295 296 296 297 297 298 298 299 299 298 297 297 297 293 295 295 292 292 292 292 291 292 292 293 293 293 293 290 289 289 289 290 293 290 290 289 288 288 289 288 286 286 285 284 284 286 286 287 289 287 286 287 289 289 289 291 291 291 294 295 295 296 296 296 296
296 296 296 295 298 296 293 291 292 291 292 292 292 292 292 293 294 295 294 295 295 295 295 296 296 296 296 297 297 296 294 293 292 293 293 294 294 293 292 291 292 291 291 292 291 291 291 291 291 291 290 290 290 290 290 290 289 289 287 284 284 283 283 283 284 284 284 286 287 289 287 286 287 287 289 289 290 291 292 295 295 295 296 296 296
296 295 294 296 294 294 294 291 292 293 291 292 293 292 293 293 295 294 293 294 292 293 292 291 291 292 297 303 298 293 292 291 290 291 292 294 293 292 292 291 290 289 289 290 291 291 291 291 290 290 290 289 290 290 290 291 290 291 286 284 285 283 283 283 283 283 284 286 287 289 285 284 287 287 288 288 287 289 291 296 296 296 296 295 295
294 293 296 296 293 291 291 291 297 291 289 292 292 292 292 293 294 292 292 291 291 289 290 290 289 289 290 294 296 293 292 291 289 290 290 292 291 291 291 290 289 288 289 289 288 286 285 285 284 286 286 289 288 287 289 290 290 292 287 286 285 284 283 283 284 283 283 282 286 288 286 285 286 286 286 287 286 285 287 291 293 295 297 296 295
Wind_Speed
5 5 7 3 2 1 4 4 2 3 3 2 2 2 2 2 1 1 1 3 3 4 3 3 2 1 1 1 3 3 3 3 3 2 3 3 3 4 9 8 8 7 9 10 10 11 10 9 9 10 10 10 9 8 9 10 10 11 10 10 11 11 10 11 11 11 11 11 11 10 8 7 7 6 6 6 6 6 6 6 7 8 8 8 9
5 3 5 6 5 2 2 3 3 4 3 3 3 3 4 3 1 0 0 2 3 2 1 2 3 3 3 2 4 4 3 3 3 4 3 4 3 2 6 7 7 6 7 9 10 10 10 10 9 9 9 10 10 9 8 9 11 11 10 10 10 10 10 11 11 11 11 11 11 10 9 8 7 7 6 6 6 6 6 6 6 7 7 7 7
4 3 3 3 4 5 4 3 2 3 3 2 1 3 3 3 2 1 0 0 1 2 2 4 4 4 2 3 3 4 3 2 3 2 2 3 2 1 2 5 6 5 5 6 9 10 10 10 10 9 9 10 10 10 9 8 9 11 11 11 10 10 10 10 10 11 11 11 11 10 10 9 8 8 7 6 6 6 6 6 6 6 6 7 6
3 3 2 3 3 4 4 4 4 3 4 2 1 1 2 2 2 2 2 3 3 4 2 5 4 3 3 4 3 4 3 3 3 2 2 2 2 1 1 2 3 4 4 4 5 7 10 11 10 10 9 10 10 11 10 10 10 10 11 12 10 9 9 9 10 10 10 10 10 10 10 9 9 8 8 7 7 6 6 6 6 6 6 6 6
3 2 3 4 4 4 4 4 5 4 3 3 3 1 2 3 3 3 4 4 5 3 3 4 5 4 3 4 4 4 2 2 2 2 2 1 1 3 2 1 1 4 4 4 4 5 6 9 10 10 10 10 10 11 11 11 10 10 10 12 11 9 9 9 9 9 10 10 10 10 10 10 10 9 8 8 7 6 6 6 5 6 6 5 5
4 5 2 2 0 1 1 3 3 4 4 5 4 3 3 3 3 4 3 5 4 2 2 5 4 4 4 3 4 3 3 4 2 0 1 2 1 2 3 3 2 1 2 4 5 5 5 6 9 9 9 8 9 10 11 11 11 11 10 12 12 11 9 9 9 9 9 10 10 10 9 10 10 10 9 8 8 7 6 6 6 6 6 5 5
3 5 4 1 1 1 1 1 3 3 4 4 5 4 4 4 5 5 3 4 4 4 3 4 4 5 4 4 5 4 4 4 3 3 2 1 3 3 3 5 3 2 2 2 4 6 6 6 5 8 9 9 10 10 10 11 11 11 10 11 13 12 10 10 9 9 9 10 9 9 9 10 10 10 10 9 9 8 8 7 6 5 5 5 5
4 5 6 4 2 2 6 2 3 4 4 4 4 5 4 4 2 5 5 2 4 3 4 4 4 5 4 5 5 5 4 3 3 2 2 3 2 1 4 4 4 2 3 3 3 4 6 6 6 6 7 9 10 11 11 10 10 10 11 11 12 13 11 11 10 10 9 10 10 10 10 10 11 11 11 10 10 9 9 8 7 7 6 5 5
4 5 6 5 5 6 4 9 3 2 4 4 4 4 5 5 3 2 2 4 3 3 4 3 3 4 5 5 3 4 4 5 7 2 2 4 2 2 0 3 3 5 3 4 4 4 5 7 7 7 6 8 8 10 11 11 11 10 11 11 11 11 12 12 12 12 11 10 11 11 11 10 10 11 11 11 11 10 10 9 8 8 7 6 6
3 3 5 5 6 7 7 7 3 4 2 5 4 4 4 4 4 2 2 4 4 4 2 3 2 4 4 4 1 3 3 1 0 6 2 2 3 2 2 1 1 3 3 3 4 4 5 6 9 8 8 7 8 10 11 11 11 12 11 12 12 12 12 13 13 13 14 12 13 12 12 11 11 11 11 12 11 11 11 10 10 9 8 7 7
3 3 3 5 5 4 1 1 2 2 3 5 4 4 4 3 3 3 3 3 4 3 3 3 3 2 4 2 2 4 4 2 1 3 2 3 2 2 2 3 2 1 2 3 4 4 5 5 4 4 5 7 6 8 10 11 11 12 12 12 14 14 14 14 14 14 14 15 14 14 13 12 13 12 12 12 12 12 11 11 11 10 10 9 8
2 3 4 6 8 5 5 2 3 4 5 5 4 4 4 5 5 3 4 3 3 1 3 3 3 4 3 2 2 2 3 4 4 2 0 1 1 2 4 4 3 3 2 2 2 4 4 4 4 5 4 5 6 7 8 9 9 10 12 12 14 16 16 15 15 15 15 15 15 14 13 12 13 13 13 13 13 12 12 12 11 11 10 10 9
2 3 4 5 6 7 7 5 4 4 4 4 4 5 3 4 3 2 3 3 2 1 0 2 4 2 2 3 3 4 2 2 1 1 1 1 2 3 3 4 4 4 5 4 3 1 1 3 4 4 3 2 2 5 7 9 9 10 13 13 14 16 18 18 16 16 16 16 16 16 14 13 12 13 13 13 13 12 12 12 12 12 11 11 11
2 3 3 4 3 4 4 4 5 5 4 4 2 4 3 4 3 1 1 2 2 1 3 2 2 2 2 1 3 2 2 4 4 4 2 1 1 2 3 3 4 4 5 4 3 2 3 0 2 6 7 8 7 3 3 4 7 10 14 14 15 17 18 14 15 17 17 16 16 15 14 15 14 14 14 13 13 13 13 13 13 13 12 12 12
2 2 2 2 3 3 3 3 3 4 5 4 4 3 3 4 4 5 2 2 1 0 1 2 2 0 2 3 1 1 1 2 2 3 5 4 3 2 2 1 2 3 4 4 3 3 0 4 2 3 4 7 9 7 4 4 6 11 11 13 16 17 17 15 15 17 17 17 17 17 15 15 16 15 15 13 14 13 14 14 14 14 13 13 13
2 2 2 3 3 4 4 3 3 3 4 4 3 2 2 4 4 2 3 2 1 0 1 2 3 3 1 1 1 1 0 2 3 3 3 4 2 2 2 2 3 2 2 4 5 3 2 3 1 2 3 5 6 5 5 4 9 12 11 12 14 17 19 18 17 17 18 18 17 19 16 15 16 16 16 14 14 12 14 15 15 15 14 15 14
2 3 3 3 3 4 4 4 4 3 4 5 5 5 3 2 2 3 3 4 2 1 2 3 3 0 2 3 2 2 1 2 1 2 3 3 4 4 3 3 3 3 2 3 3 4 4 1 5 5 6 7 5 5 4 4 4 5 8 12 13 16 18 20 20 19 19 18 18 17 16 14 16 16 16 15 15 14 16 16 16 16 16 16 15
3 3 4 3 4 3 3 4 3 4 4 4 4 3 2 2 2 2 2 1 4 3 2 1 3 2 6 3 5 2 1 2 1 0 3 1 2 3 2 3 3 3 3 2 2 4 4 3 3 3 2 2 3 2 2 2 1 1 3 5 9 11 11 15 18 21 20 19 18 19 18 18 17 16 15 15 16 16 17 18 16 16 17 17 16
4 4 4 4 4 4 4 4 4 4 3 4 4 2 3 2 2 2 3 2 2 2 4 3 2 3 2 2 4 1 1 2 0 1 2 2 3 3 5 7 5 4 4 4 3 3 3 3 4 4 4 2 1 3 1 1 3 6 9 11 14 13 12 13 14 17 20 22 21 20 18 17 19 16 17 16 16 16 17 18 17 17 18 17 17
5 4 5 5 6 5 5 5 5 4 4 4 3 2 3 3 3 2 3 2 3 4 4 3 3 1 3 4 4 4 3 4 2 2 2 0 4 4 1 6 6 3 4 6 7 6 6 4 2 3 4 3 2 1 1 2 3 5 5 9 12 14 13 14 15 16 17 18 20 22 21 20 22 17 16 17 18 17 17 18 18 19 19 19 18
5 5 5 5 5 6 6 6 6 5 5 5 3 4 4 4 4 4 3 4 2 3 4 4 4 3 4 3 3 4 5 3 2 3 2 1 1 1 4 5 3 4 6 5 5 5 5 5 5 3 2 4 5 3 2 3 4 4 5 9 10 8 6 10 10 12 11 11 16 20 22 17 16 20 16 16 14 14 17 18 19 19 19 19 18
4 5 5 5 6 6 6 6 6 6 5 5 4 5 4 4 3 4 4 5 3 4 4 3 4 2 1 4 2 1 3 3 4 3 3 2 1 1 2 3 6 5 4 7 7 7 8 8 9 9 8 7 6 5 5 4 5 3 5 7 5 6 6 9 10 10 10 7 5 7 13 16 18 19 17 16 19 19 16 15 17 19 20 19 19
5 4 5 5 5 5 6 5 5 5 6 5 5 5 4 5 5 6 5 5 5 6 6 4 5 5 5 5 5 3 3 2 1 3 2 2 3 3 3 2 1 3 4 4 4 6 7 7 8 8 7 7 8 8 8 8 7 9 9 7 9 10 11 12 12 12 7 4 3 8 13 18 17 16 17 15 17 17 19 21 21 21 20 21 22
4 5 4 4 6 5 5 5 5 6 6 5 5 6 5 5 6 6 6 5 4 6 6 6 6 6 5 4 5 5 5 5 2 2 4 2 3 1 2 4 2 2 4 5 1 5 7 8 7 8 8 7 7 7 7 8 9 14 9 11 11 13 12 11 12 12 12 9 8 8 10 15 15 13 10 11 16 19 18 17 19 21 22 22 21
3 6 4 5 6 6 6 6 5 5 5 5 4 5 5 6 6 5 5 5 4 6 6 4 5 7 6 3 6 6 5 2 4 5 4 5 5 4 1 1 1 3 2 3 3 3 4 6 7 8 8 8 7 8 7 7 7 10 9 7 12 11 12 10 11 12 11 10 8 8 10 7 9 13 10 9 13 13 13 14 15 14 13 14 16
5 5 5 4 4 5 5 5 5 4 5 5 5 4 5 6 5 6 5 4 5 6 7 5 5 4 4 6 5 6 4 3 4 5 4 4 4 3 2 2 1 2 3 4 4 5 5 4 5 7 8 8 7 6 7 7 7 10 10 9 10 11 13 13 12 11 9 7 7 7 8 7 7 11 13 14 12 10 11 12 14 12 13 11 10
6 4 4 4 5 5 5 6 5 5 5 5 5 5 5 6 6 6 5 4 6 6 5 6 6 5 4 5 5 4 3 3 4 4 5 5 4 3 4 6 5 4 5 2 4 3 1 3 2 6 7 6 6 6 5 4 5 9 8 8 6 9 10 12 12 10 9 8 7 7 7 5 4 8 11 10 8 7 9 11 12 14 15 14 12
4 5 4 6 6 6 5 6 5 5 5 5 5 5 5 7 6 6 5 3 6 6 4 6 6 5 5 3 4 3 2 3 3 4 4 5 5 4 5 5 6 5 4 6 5 3 2 5 2 2 6 7 6 5 6 7 7 10 7 3 3 4 9 11 10 10 10 10 9 7 6 5 5 4 3 5 8 10 10 9 9 12 13 13 13
4 4 5 5 6 7 7 6 6 6 5 5 5 5 5 5 6 5 5 4 5 5 4 5 4 4 4 4 4 4 1 2 3 3 3 3 3 3 3 5 5 5 3 5 3 1 3 3 3 3 5 6 7 6 6 7 8 9 6 6 6 5 10 12 12 12 11 12 11 10 8 7 6 5 5 6 6 7 8 9 8 9 11 12 12
3 3 4 5 6 6 7 6 6 6 7 6 6 6 6 6 6 6 5 5 5 3 4 5 4 3 3 3 3 3 0 2 2 1 3 3 3 3 3 3 5 5 2 2 3 2 3 3 0 2 4 7 6 6 5 7 11 11 8 8 8 8 14 13 14 13 13 13 13 12 11 9 6 5 6 7 7 8 8 10 10 9 10 11 11
3 2 2 4 4 5 5 5 6 6 6 6 5 6 6 6 5 6 5 5 7 5 4 5 4 4 4 4 1 2 1 3 3 2 2 2 3 3 3 3 3 4 3 2 1 3 2 3 2 2 3 5 6 5 7 7 10 11 8 8 8 13 13 12 15 16 15 15 14 13 13 11 11 10 10 10 10 10 10 10 11 11 10 10 11
4 4 3 3 3 4 4 5 5 5 6 5 6 6 5 6 6 6 5 5 6 6 4 3 4 5 5 4 3 3 1 2 3 3 3 3 2 3 2 4 3 2 3 2 0 4 2 2 3 4 4 4 4 7 6 7 8 11 7 8 10 11 10 9 14 17 17 17 17 15 14 14 13 13 12 11 12 12 13 13 13 13 12 11 11
4 4 4 4 4 4 4 4 5 4 5 5 4 5 5 5 5 6 5 5 6 5 6 5 3 5 5 5 4 2 2 3 3 3 4 3 4 4 3 5 5 2 3 2 2 4 3 1 1 3 5 4 5 5 7 6 7 7 8 7 8 8 9 9 9 14 19 19 18 18 16 15 15 14 14 13 13 12 12 12 12 12 12 12 12
6 6 5 4 4 4 4 4 4 4 5 5 5 5 5 6 5 5 7 6 5 5 5 6 5 4 5 5 4 4 3 3 3 3 3 4 4 5 5 5 5 5 2 4 2 1 5 3 4 3 4 5 5 6 7 8 7 5 7 7 6 6 7 8 9 8 18 18 20 20 19 18 16 15 14 14 13 13 12 12 12 12 12 12 12
5 6 6 5 4 4 4 4 4 4 4 4 4 4 4 4 4 4 4 5 6 6 5 5 6 4 4 5 5 4 3 3 3 2 2 5 4 6 4 4 5 3 3 3 3 4 4 4 2 5 6 5 5 7 7 6 5 4 6 7 6 6 7 7 7 6 11 13 15 15 15 16 15 15 15 15 14 13 14 13 12 11 10 11 11
2 3 3 1 2 4 5 4 5 5 5 5 5 5 6 6 5 6 4 4 4 5 6 6 5 5 6 5 4 4 4 4 3 3 3 4 5 5 5 3 4 3 2 3 3 2 1 4 3 4 5 6 4 4 6 5 6 6 5 5 5 7 6 7 7 6 8 12 12 13 14 14 15 15 15 15 16 16 14 14 13 12 11 11 11
4 5 3 0 3 4 6 7 6 6 6 6 6 5 4 4 5 5 5 5 4 4 5 6 7 7 6 6 6 4 4 5 3 3 3 4 4 5 5 3 4 3 3 3 3 3 4 5 4 2 3 2 2 3 7 8 7 5 4 6 6 7 7 5 6 6 8 10 11 13 13 13 15 15 15 14 15 16 16 15 14 14 14 13 11
6 6 7 6 5 7 7 7 6 7 6 6 6 5 4 3 3 3 4 5 5 5 5 4 5 6 7 7 5 6 6 6 5 4 4 5 4 4 4 3 4 3 4 3 3 4 4 2 2 4 4 6 4 3 6 7 7 8 9 6 4 6 9 10 8 7 4 5 6 8 10 11 13 14 15 14 14 15 16 15 13 15 16 16 16
6 5 6 5 3 4 10 11 8 6 5 4 4 4 4 4 4 4 4 4 4 4 4 4 5 5 6 6 6 6 7 6 6 7 5 4 4 4 4 4 3 4 4 3 3 5 4 4 2 2 3 2 4 7 6 4 3 4 9 11 11 7 6 7 9 7 5 6 6 9 10 10 12 11 12 12 13 14 15 14 13 16 16 17 16
5 3 4 2 2 3 9 11 10 4 3 4 3 4 4 4 3 4 4 4 4 4 4 4 4 5 6 7 7 8 8 8 7 6 7 7 4 5 4 4 4 4 4 3 5 5 5 4 3 3 2 2 4 1 3 5 7 5 7 6 9 11 10 6 5 8 5 7 10 10 10 12 12 12 11 9 10 12 13 12 12 15 15 15 15
6 6 6 6 5 9 12 11 8 5 3 2 1 1 1 1 2 4 5 5 6 6 5 5 5 6 5 5 6 7 8 10 11 10 9 9 7 6 4 3 4 5 4 4 3 4 3 4 4 2 4 5 4 6 8 7 7 5 6 5 5 6 8 9 6 3 4 8 8 8 8 9 11 9 8 7 8 10 10 10 10 13 14 14 14
7 8 9 8 10 11 10 9 5 4 2 0 2 3 3 1 2 4 4 4 4 5 5 6 6 6 7 6 6 11 12 11 12 12 12 11 9 8 7 5 5 5 4 3 3 2 2 3 2 2 6 5 4 3 3 2 3 3 5 5 7 7 7 9 4 0 5 7 10 12 9 7 9 9 7 8 6 7 6 7 7 9 12 12 12
5 3 4 7 8 6 5 5 4 4 1 3 4 4 1 4 4 4 5 5 5 5 6 6 7 8 7 5 4 6 8 9 10 13 12 11 10 10 10 9 8 7 5 4 3 2 1 1 1 0 1 3 4 2 2 4 3 3 4 5 6 6 6 8 12 8 2 9 8 10 11 6 6 9 8 6 7 7 7 6 10 10 9 9 9
7 8 8 9 6 4 5 4 4 1 1 2 3 1 3 6 6 4 4 5 5 5 6 7 7 6 5 4 4 4 6 7 6 6 8 9 10 10 10 9 8 9 9 6 4 3 2 3 2 3 2 3 3 2 2 3 5 4 3 3 3 4 7 7 5 8 7 8 9 9 11 5 4 6 6 6 6 8 9 7 8 8 6 6 6
6 5 8 8 7 5 5 5 1 1 0 3 4 4 4 3 2 4 4 4 5 6 5 6 6 5 4 6 5 3 2 7 7 6 6 3 3 5 7 7 7 9 8 9 8 5 6 3 3 3 4 2 1 1 1 3 2 3 4 5 4 3 4 6 6 8 9 5 7 10 11 7 4 4 6 5 6 8 9 8 10 7 4 2 4
7 9 9 8 6 6 7 4 3 2 1 3 3 2 4 5 4 1 1 2 3 4 4 4 4 5 5 4 5 4 3 4 5 6 6 6 4 4 3 3 3 1 5 6 5 5 3 2 2 3 1 0 0 1 2 0 2 3 4 5 4 6 6 7 7 8 7 4 5 6 11 9 4 4 6 8 7 7 7 6 10 9 6 1 2
9 10 9 8 7 5 4 6 5 3 1 2 2 4 6 7 6 5 3 3 3 3 2 2 3 4 3 5 5 6 6 5 3 3 5 4 3 3 3 2 2 3 3 2 1 1 1 1 1 1 1 1 1 2 2 1 1 2 3 4 5 5 7 6 6 5 5 3 4 4 9 8 5 7 7 8 7 6 4 5 8 9 8 6 1
5 6 5 7 8 6 5 5 4 3 1 3 2 6 8 8 8 5 4 4 4 4 4 3 3 3 4 4 5 4 3 3 5 6 5 5 3 3 3 3 3 3 3 2 4 5 4 4 3 3 2 1 3 2 2 2 2 3 2 2 3 3 5 6 7 6 5 3 3 4 7 8 6 7 8 6 5 5 5 4 6 8 7 6 7
5 4 4 3 4 7 5 3 4 2 0 2 1 6 7 9 7 5 4 5 5 6 6 5 5 4 2 3 4 5 4 2 1 8 9 9 4 4 3 3 3 4 3 1 3 5 6 6 5 3 2 2 3 4 6 6 3 2 0 3 5 3 5 7 6 4 5 3 3 5 4 6 5 4 6 4 4 6 7 5 3 5 8 7 6
5 4 4 5 3 2 2 3 4 5 3 1 1 3 7 7 7 5 4 6 5 5 5 5 5 5 6 8 6 5 5 3 5 7 7 7 5 5 4 4 3 2 1 0 1 2 3 2 4 0 2 2 2 3 4 4 6 2 1 5 4 2 5 4 7 5 6 3 5 1 3 4 5 4 8 5 3 4 4 3 3 4 5 6 7
4 4 4 6 5 4 3 2 4 2 2 3 3 2 6 7 6 4 6 5 5 3 5 5 5 6 6 7 9 8 7 7 11 11 10 8 6 5 4 4 2 2 1 1 3 3 4 4 3 3 3 4 3 4 4 9 8 6 3 4 4 5 6 6 6 6 7 2 2 2 7 5 4 4 4 7 6 4 4 3 3 4 4 3 5
Wind_Direction
197 178 129 189 245 190 147 171 154 139 130 130 152 171 165 164 195 263 336 332 329 325 336 340 3 46 57 128 137 150 167 162 152 155 184 189 215 238 211 211 208 210 190 191 190 190 189 202 191 183 186 188 195 189 184 168 167 165 163 160 157 155 153 154 153 148 147 146 145 145 142 141 137 130 125 117 115 111 105 96 98 102 103 103 101
192 193 158 167 175 167 145 162 194 162 149 167 180 178 179 149 137 138 348 335 317 327 58 53 59 48 33 103 120 141 154 161 146 178 193 197 207 244 233 216 215 208 201 199 198 195 193 198 198 191 196 196 198 195 201 189 175 175 170 166 161 159 158 157 158 157 153 151 150 149 148 145 142 140 135 132 127 124 116 110 102 95 96 95 95
180 178 199 173 147 161 168 160 191 163 153 180 166 202 170 158 149 123 142 222 360 38 74 87 63 40 36 85 98 107 133 147 151 192 203 224 199 208 285 213 199 203 213 217 208 201 197 198 199 200 202 203 203 202 199 209 196 189 182 170 167 163 162 161 162 162 160 157 157 159 155 153 151 146 143 139 134 124 124 122 119 110 106 108 110
174 166 186 173 169 179 166 155 189 179 158 152 122 127 146 123 111 121 116 94 59 45 44 88 83 55 44 68 74 89 113 140 164 188 222 215 192 184 343 335 273 233 228 236 249 218 203 204 201 203 206 205 205 203 203 203 211 202 194 175 168 169 167 168 166 166 165 164 162 159 156 154 155 154 151 150 147 144 137 137 132 131 121 123 120
147 137 178 196 180 183 180 170 175 162 151 139 121 125 93 92 80 101 100 102 92 57 64 71 74 53 50 52 58 72 70 99 136 165 206 217 7 353 340 349 345 315 285 265 264 279 240 212 213 209 209 207 208 209 209 204 211 214 203 180 169 177 175 176 172 169 168 170 168 163 162 163 158 158 158 153 149 148 150 145 138 135 141 132 124
148 125 138 237 112 261 216 161 140 136 129 137 143 150 131 111 113 97 114 111 111 112 81 82 74 70 57 41 50 41 60 71 43 355 207 139 114 267 312 314 307 299 310 298 284 269 279 268 219 219 216 215 214 214 215 212 209 214 212 184 173 181 186 184 183 178 177 174 174 172 171 167 165 161 160 159 159 159 159 154 158 155 147 145 137
97 108 113 156 307 337 331 85 113 113 119 134 134 132 130 122 129 108 79 101 110 101 98 79 82 73 59 51 48 27 37 53 55 65 57 38 151 189 235 258 268 267 285 301 297 294 289 286 267 223 222 219 218 220 221 217 216 215 217 202 180 184 191 191 192 190 185 181 179 181 177 173 170 168 167 167 166 166 169 169 169 159 161 157 155
105 105 112 109 127 52 356 351 108 101 108 114 122 129 116 101 69 120 125 97 111 71 82 97 88 88 73 63 40 23 11 16 53 74 64 86 67 189 209 232 236 238 245 248 260 274 284 279 274 274 234 215 223 219 223 223 223 223 216 219 202 191 192 198 197 198 196 188 184 185 186 181 180 177 174 174 173 176 175 176 176 173 175 166 162
113 107 114 126 99 68 33 328 360 101 117 106 99 113 125 112 68 40 99 134 107 115 78 82 82 81 87 72 74 88 50 6 337 336 95 72 61 44 27 233 229 229 225 231 240 252 265 268 271 265 270 237 228 230 228 228 223 225 222 224 221 212 204 201 204 206 199 196 193 193 191 187 185 184 181 181 182 183 180 181 181 181 178 174 173
77 101 107 118 120 131 163 210 211 93 71 95 93 85 81 106 109 46 69 111 100 104 90 74 90 95 98 118 168 90 85 58 348 314 342 66 62 36 338 317 314 251 238 232 239 244 250 256 256 259 256 254 246 231 233 236 230 226 225 223 226 225 219 207 208 213 209 199 196 198 194 194 191 193 189 187 189 188 186 189 187 187 186 184 182
75 68 78 110 109 107 60 316 48 66 123 98 101 98 94 77 106 90 47 67 126 130 124 104 68 63 91 98 135 124 117 170 295 275 355 7 348 6 359 1 350 307 259 248 239 237 247 252 253 250 249 247 246 246 237 239 244 240 233 224 222 225 220 213 210 213 222 210 198 199 197 198 197 198 198 193 193 196 194 192 192 191 188 190 189
96 122 122 116 132 159 158 188 146 185 117 108 101 90 90 75 59 62 57 49 40 66 115 114 82 68 47 55 115 142 159 159 159 214 77 309 323 4 2 340 356 340 332 307 260 246 243 237 234 240 248 248 242 237 245 243 242 251 248 236 224 227 226 219 212 212 217 225 211 202 199 200 201 201 201 198 193 199 199 198 196 192 193 192 193
58 72 111 131 134 150 161 155 139 107 103 100 99 91 90 111 99 93 108 87 57 11 54 77 88 34 28 41 357 28 5 22 48 143 99 11 343 16 357 4 352 355 344 345 354 5 265 251 238 247 256 229 233 257 254 255 251 242 246 247 234 232 230 224 218 214 213 219 219 209 198 200 203 202 206 202 199 199 202 202 200 199 195 196 197
60 55 84 106 109 103 106 114 107 104 108 109 109 117 119 97 104 50 23 122 99 59 21 74 28 142 86 352 350 340 20 3 359 342 357 29 353 28 15 20 349 345 346 355 23 27 346 288 50 23 334 335 324 266 241 261 268 263 249 245 245 243 244 245 233 216 216 219 220 216 199 200 202 204 207 208 204 201 203 204 204 203 201 201 202
69 87 101 102 116 109 101 95 98 108 109 119 137 144 166 163 162 170 135 55 127 92 180 101 132 50 73 71 339 20 334 3 331 335 336 329 342 18 357 13 360 341 336 337 352 303 348 83 103 180 217 242 249 264 250 240 245 257 267 262 252 251 252 243 241 242 227 217 218 220 206 199 201 203 205 210 209 205 203 204 205 207 206 203 204
84 103 99 135 136 119 111 95 84 77 98 107 91 91 139 156 163 157 135 93 323 177 143 84 117 167 103 207 168 119 8 337 313 294 325 320 335 354 352 340 339 14 7 334 329 310 322 103 327 280 237 240 234 248 268 277 275 269 262 258 263 262 259 252 240 235 237 235 222 215 214 198 202 202 204 208 212 212 205 204 205 209 209 207 207
99 137 152 127 98 107 114 119 122 112 123 127 139 153 156 144 142 145 160 154 180 150 63 74 69 50 151 97 24 25 205 234 352 297 349 343 333 334 336 347 344 338 347 312 304 306 300 256 185 209 222 234 233 230 238 266 296 353 353 338 326 297 274 263 254 244 233 234 238 238 223 208 203 204 206 206 209 210 208 207 209 209 211 211 211
88 107 116 115 103 97 103 111 109 107 109 121 121 113 123 132 165 149 124 196 153 134 122 135 150 111 70 121 176 174 196 240 85 272 317 246 303 317 348 345 331 330 322 305 302 302 305 293 287 268 239 247 271 256 270 311 306 166 210 236 258 268 271 275 272 262 249 232 239 239 233 228 213 207 208 209 209 207 208 210 211 212 211 214 214
68 86 103 108 108 96 96 95 87 79 77 81 77 119 152 154 156 141 171 150 124 108 129 131 88 26 78 96 74 64 155 136 158 135 6 319 1 355 355 358 356 359 348 340 332 318 297 286 306 321 320 334 271 289 327 224 254 268 255 250 258 262 266 271 266 261 261 260 236 229 244 240 235 218 206 209 210 208 208 211 213 216 216 215 216
96 82 93 99 101 94 97 95 92 87 82 79 105 110 93 75 93 115 126 145 136 137 136 133 132 68 35 45 60 54 49 69 107 144 158 4 320 333 319 350 343 348 344 343 342 336 333 340 335 330 325 323 287 282 199 221 258 263 262 266 273 272 279 290 299 300 290 276 265 251 223 224 236 232 217 209 208 208 209 210 212 216 220 219 218
91 99 94 101 100 105 102 101 102 99 99 98 86 79 87 92 83 83 85 64 83 119 119 157 128 147 127 90 76 59 58 50 43 62 116 105 299 360 320 323 345 332 354 351 354 360 4 2 360 357 336 313 316 318 318 271 267 258 271 267 271 288 272 269 288 291 286 284 284 278 264 249 226 239 216 217 213 215 216 213 214 219 222 221 222
87 100 98 98 108 107 103 104 107 108 102 98 92 81 77 77 79 96 93 85 55 90 115 115 94 102 68 134 103 57 37 34 32 54 47 72 129 307 309 351 358 314 341 9 11 21 38 38 40 35 29 21 6 349 326 300 286 275 280 290 268 277 284 284 271 269 277 274 286 293 281 257 242 234 227 214 218 218 217 223 225 227 224 224 224
106 91 103 109 97 96 100 100 97 98 100 99 94 99 86 82 74 72 69 85 87 89 84 78 92 81 69 86 108 116 144 121 113 47 94 56 28 354 322 294 256 312 324 345 13 28 41 42 39 32 26 23 19 16 15 8 3 347 337 331 335 340 329 314 323 318 305 288 204 230 252 258 254 236 234 227 220 219 225 223 222 226 229 230 230
102 104 98 100 99 90 93 94 95 96 94 98 99 97 93 89 80 82 77 71 79 83 83 86 85 84 68 71 84 86 68 99 131 124 88 91 99 26 328 312 351 247 289 325 342 35 36 38 37 32 26 24 23 15 9 15 10 7 24 17 6 353 350 336 325 324 336 338 327 299 273 277 281 285 282 249 222 226 234 242 239 238 235 236 239
123 114 127 121 115 110 107 105 98 99 108 99 99 99 99 90 90 83 85 87 97 104 96 100 105 99 102 70 86 77 85 118 114 112 89 106 91 51 305 92 275 309 302 10 348 328 31 39 30 29 23 22 19 16 9 10 17 7 9 29 18 3 352 357 5 355 341 336 327 295 287 255 255 282 294 270 251 246 256 256 259 258 257 255 258
156 149 162 133 114 121 116 112 115 118 113 114 112 106 101 101 100 97 95 108 99 93 100 99 90 107 113 94 86 100 111 112 120 108 125 91 64 72 343 353 77 305 306 349 330 21 345 17 17 25 24 18 11 9 10 2 3 6 20 13 5 358 348 353 358 358 5 349 317 301 296 298 246 232 227 235 247 244 246 245 249 248 239 235 227
163 162 149 130 129 120 123 125 131 125 123 116 114 109 107 103 103 108 107 110 101 105 109 112 107 107 94 111 114 97 126 140 114 119 122 116 131 150 88 35 358 12 1 328 340 61 357 297 353 22 24 6 6 1 355 348 351 1 22 17 345 333 346 350 349 351 359 3 349 327 317 317 327 320 318 307 297 270 256 257 250 242 246 249 242
177 148 166 141 139 136 133 138 137 132 128 129 126 120 120 114 112 115 118 133 111 105 118 105 113 116 117 117 93 111 136 124 107 116 104 129 121 122 102 97 79 11 348 356 355 326 338 20 317 11 18 3 351 352 343 351 356 350 359 10 331 316 342 347 348 351 355 359 1 354 334 320 319 322 291 296 303 311 307 300 285 274 268 264 256
184 171 159 156 146 144 142 144 144 141 136 138 135 131 129 121 123 120 120 120 112 122 123 115 130 124 111 119 120 131 136 108 95 99 107 90 109 126 127 123 137 97 24 7 303 304 308 3 28 303 4 354 349 342 349 353 349 351 346 345 345 346 345 347 351 350 349 351 354 356 352 334 313 303 301 291 288 286 288 282 271 265 272 269 263
208 199 168 162 159 152 145 150 150 149 151 152 147 147 139 137 143 139 145 134 115 108 119 121 134 119 114 103 120 119 177 68 77 110 120 122 108 109 114 125 123 116 151 52 304 221 272 313 33 325 338 344 346 344 356 349 352 358 354 352 348 348 345 347 350 348 346 345 343 343 343 342 331 305 286 284 281 280 280 283 280 271 264 264 263
200 221 202 177 168 162 150 150 152 156 155 157 153 151 147 143 151 144 151 139 133 137 147 131 152 127 127 121 102 107 78 85 67 64 64 90 112 110 95 100 87 121 131 130 36 288 172 316 297 293 323 322 342 347 353 354 356 2 3 0 360 352 357 354 351 350 347 343 339 336 336 336 335 334 328 319 313 304 294 288 282 273 261 260 261
193 187 199 201 192 168 168 152 155 154 161 165 161 156 151 153 158 151 167 145 142 149 161 146 142 136 133 137 157 144 123 77 69 58 74 62 108 109 127 100 84 105 118 119 144 279 252 212 301 302 344 333 336 11 359 355 356 5 7 12 2 7 10 2 359 356 354 350 347 345 343 342 342 341 336 330 324 319 313 306 302 297 292 282 268
177 187 197 203 198 192 172 170 165 166 165 172 177 159 156 159 169 165 166 163 153 162 152 159 153 149 145 147 170 164 150 103 92 63 54 60 76 73 79 92 81 61 90 109 33 306 303 259 262 325 325 357 358 12 9 1 0 357 9 16 10 13 11 5 359 1 4 5 8 9 9 7 3 358 353 345 338 331 322 313 307 302 296 291 285
181 187 194 195 197 196 188 191 186 181 178 178 183 173 169 170 177 169 170 170 160 163 158 163 173 171 153 153 178 183 172 130 126 90 106 74 72 67 47 73 65 47 21 67 36 7 321 326 352 328 353 5 2 8 10 360 356 2 14 8 14 17 13 5 2 4 13 19 20 18 16 14 11 11 6 360 353 346 340 332 323 312 301 293 288
193 187 188 189 191 192 198 202 195 197 191 188 188 182 179 176 177 197 190 177 165 163 172 178 178 164 153 167 189 182 161 133 112 121 118 97 97 95 86 81 88 64 38 68 66 12 345 322 339 355 6 350 14 356 1 356 349 3 14 13 6 11 16 8 3 355 15 21 22 19 15 11 9 7 8 6 3 358 351 345 342 335 321 305 294
36 17 12 321 208 193 200 207 207 203 199 193 189 198 187 182 182 188 197 206 196 182 179 181 176 171 177 174 202 180 171 155 147 112 99 107 110 115 105 101 109 113 100 81 83 90 15 350 333 10 351 356 345 354 359 357 5 5 11 354 9 21 12 9 2 353 1 13 18 17 12 9 6 3 3 2 3 1 356 350 351 354 349 338 321
112 153 165 276 268 225 208 209 212 212 209 200 199 204 207 194 190 185 191 196 204 208 201 185 181 179 179 185 190 169 164 169 159 133 141 122 133 121 124 135 122 130 94 87 89 79 59 13 323 314 346 345 340 341 5 1 354 5 10 14 5 4 5 6 360 352 354 6 10 9 7 4 1 358 357 357 358 358 356 353 353 359 359 352 339
76 38 36 30 5 334 291 244 220 216 211 209 208 201 190 185 194 195 198 203 206 208 216 211 189 185 183 194 182 170 168 173 185 170 157 144 145 132 133 144 132 114 104 97 95 81 78 50 340 341 351 359 358 12 4 360 352 353 357 1 8 15 6 358 1 347 354 6 3 360 360 358 355 352 354 352 352 353 352 353 357 2 3 359 352
89 91 74 63 42 341 316 301 263 235 227 225 218 203 200 192 192 195 201 215 229 227 220 217 214 197 193 189 181 176 180 186 173 172 164 154 148 152 149 143 137 106 95 88 78 71 69 43 9 49 337 334 11 346 352 353 343 27 0 351 352 3 14 4 345 342 345 351 0 1 356 350 347 351 349 350 349 350 350 351 0 1 2 358 354
126 111 106 112 161 196 243 258 267 271 260 250 229 216 211 208 198 205 202 211 228 247 248 239 231 221 208 198 188 186 186 188 178 173 160 163 152 141 170 138 140 99 90 83 60 63 53 45 33 336 346 321 342 305 301 348 6 19 34 7 341 339 344 351 341 327 339 356 348 349 351 348 348 344 345 349 349 348 347 352 358 0 0 355 354
156 162 178 181 205 224 234 239 247 257 231 226 223 217 235 258 233 227 215 213 215 222 225 226 224 230 229 213 201 194 197 189 184 171 175 160 149 150 186 147 123 108 97 73 90 71 57 51 4 350 356 358 349 355 355 8 16 337 325 3 327 325 325 332 335 320 356 350 341 342 348 348 336 337 334 341 345 347 349 358 357 355 357 357 358
181 173 184 198 210 225 232 238 245 266 264 237 9 336 323 302 277 267 267 249 237 236 237 237 234 227 227 218 214 205 198 188 180 176 169 166 163 157 166 162 137 119 115 108 97 110 89 37 340 2 354 338 331 345 334 304 304 319 342 351 342 324 333 323 305 53 9 7 344 337 336 343 330 322 333 334 337 348 352 1 356 349 352 359 3
162 177 230 222 227 243 251 255 265 271 345 77 77 104 219 241 231 239 239 244 235 233 230 227 230 230 233 229 223 208 199 186 181 174 165 165 160 156 160 165 158 142 136 129 164 164 153 203 195 128 251 290 299 282 286 294 341 350 332 336 329 341 355 353 329 328 83 9 342 328 319 337 332 321 324 331 335 345 349 350 345 351 355 2 10
200 188 212 223 212 221 248 246 236 266 73 13 6 268 218 226 218 225 236 240 238 234 231 229 232 227 224 210 209 198 191 180 157 155 156 158 159 157 159 159 159 154 154 152 157 174 177 185 230 240 198 251 260 313 309 6 333 339 337 338 342 344 332 329 305 303 319 360 328 318 306 327 320 300 313 326 335 336 324 325 338 346 354 10 29
189 178 217 226 229 221 222 233 225 40 349 312 309 291 269 288 272 227 240 239 244 246 242 238 234 214 177 184 187 155 120 132 126 130 124 154 151 141 149 161 165 165 166 166 166 169 170 153 193 239 206 207 261 278 29 346 335 344 342 345 338 317 292 295 291 302 313 337 317 313 310 322 324 308 315 314 327 322 314 328 324 325 329 31 57
171 195 213 217 221 210 208 183 144 196 228 306 306 2 40 40 33 38 239 255 253 258 254 242 223 195 191 168 141 126 93 120 143 145 160 162 138 121 127 153 168 72 43 40 25 34 64 161 168 215 310 127 332 261 310 111 24 337 331 313 312 311 305 290 289 287 290 301 284 306 302 316 319 332 318 315 318 308 312 328 320 310 304 316 75
180 191 189 190 198 192 167 157 158 152 211 266 191 96 74 65 58 43 23 31 39 42 49 113 128 137 129 131 137 139 148 155 161 158 137 122 125 133 146 126 57 61 68 42 55 125 123 110 124 166 227 223 216 233 240 207 212 238 240 259 277 278 283 290 282 261 288 273 288 315 290 310 323 315 304 303 308 310 332 331 331 327 319 310 110
125 135 139 141 146 144 147 140 122 111 31 22 66 92 83 73 68 57 51 46 41 36 30 35 71 108 132 135 137 136 128 136 135 154 150 119 157 150 124 92 84 81 74 37 81 102 115 129 146 161 186 210 213 231 252 253 252 256 276 302 310 292 311 318 309 321 309 293 292 291 286 296 303 296 301 298 311 312 328 338 316 317 318 319 327
102 108 144 130 144 136 132 114 111 116 36 354 355 108 109 105 84 73 73 62 49 49 37 32 31 35 65 115 114 121 103 103 137 151 147 141 143 132 130 110 111 106 85 41 94 98 113 123 131 131 227 256 271 271 269 271 266 266 140 2 315 311 337 314 306 317 297 318 275 258 280 299 299 297 301 294 302 308 301 292 286 292 300 298 292
89 121 121 90 62 60 109 149 147 151 191 339 317 141 118 116 117 110 100 91 70 65 58 40 33 34 29 63 90 97 94 69 68 101 128 116 109 117 112 108 82 56 35 25 147 92 82 108 123 172 223 259 282 297 293 312 320 314 61 305 274 328 298 283 294 301 298 301 268 293 333 261 300 317 309 289 300 277 281 282 257 288 298 296 294
104 93 86 88 65 46 49 71 41 45 83 38 25 73 113 115 109 109 105 98 89 65 84 67 48 50 45 43 68 85 92 98 92 91 92 93 96 98 110 102 93 48 314 25 33 15 6 10 356 3 332 337 340 338 329 329 322 316 279 257 276 280 279 282 284 304 316 279 262 354 316 301 325 288 299 317 308 277 276 285 296 273 263 256 265